| time (UTC) | temp F | wind direction | speed MPH | gust MPH | rain 1hr in | rain 24hr in | rain mn in | humidity % | barometer mb |
| 20260507010104 | 54 | 288 | 0.0 | 0.0 | 0.00 | 0.03 | 0.00 | 50 | 1012.1 |
| 20260507005604 | 54 | 288 | 0.0 | 0.0 | 0.00 | 0.03 | 0.00 | 49 | 1012.1 |
| 20260507005104 | 54 | 271 | 0.0 | 0.0 | 0.00 | 0.03 | 0.00 | 49 | 1012.1 |
| 20260507004105 | 54 | 286 | 0.0 | 0.0 | 0.00 | 0.03 | 0.00 | 48 | 1012.1 |
| 20260507003104 | 55 | 288 | 0.0 | 0.0 | 0.00 | 0.03 | 0.00 | 47 | 1012.1 |
| 20260507002604 | 55 | 288 | 0.0 | 0.0 | 0.00 | 0.03 | 0.00 | 46 | 1012.1 |
| 20260507002104 | 55 | 289 | 0.0 | 0.0 | 0.00 | 0.03 | 0.00 | 46 | 1012.1 |
| 20260507001604 | 55 | 289 | 0.0 | 0.0 | 0.00 | 0.03 | 0.00 | 45 | 1012.1 |
| 20260507001104 | 55 | 289 | 0.0 | 0.0 | 0.00 | 0.03 | 0.00 | 45 | 1012.1 |
| 20260507000605 | 55 | 289 | 0.0 | 0.0 | 0.00 | 0.03 | 0.00 | 45 | 1012.1 |
| 20260507000104 | 55 | 289 | 0.0 | 0.0 | 0.00 | 0.03 | 0.00 | 45 | 1012.0 |
| 20260506235604 | 55 | 289 | 0.0 | 0.0 | 0.00 | 0.03 | 0.00 | 44 | 1012.0 |
| 20260506234605 | 55 | 290 | 0.0 | 0.0 | 0.00 | 0.03 | 0.00 | 43 | 1011.9 |
| 20260506233604 | 56 | 350 | 0.0 | 0.0 | 0.00 | 0.03 | 0.00 | 43 | 1011.9 |
| 20260506233106 | 56 | 351 | 0.0 | 0.0 | 0.00 | 0.03 | 0.00 | 42 | 1011.8 |
| 20260506232604 | 56 | 327 | 0.0 | 0.0 | 0.00 | 0.03 | 0.00 | 43 | 1011.8 |
| 20260506232105 | 56 | 351 | 0.0 | 0.0 | 0.00 | 0.03 | 0.00 | 43 | 1011.8 |
| 20260506231604 | 56 | 227 | 0.0 | 0.0 | 0.00 | 0.03 | 0.00 | 43 | 1011.6 |
| 20260506230604 | 56 | 347 | 0.0 | 0.0 | 0.00 | 0.03 | 0.00 | 43 | 1011.6 |
| 20260506230104 | 56 | 310 | 0.0 | 0.0 | 0.00 | 0.03 | 0.00 | 43 | 1011.6 |
| 20260506225604 | 57 | 298 | 0.0 | 0.0 | 0.00 | 0.03 | 0.00 | 42 | 1011.7 |
| 20260506225105 | 57 | 324 | 0.0 | 0.0 | 0.00 | 0.03 | 0.00 | 41 | 1011.7 |
| 20260506224604 | 57 | 288 | 0.0 | 0.0 | 0.00 | 0.03 | 0.00 | 42 | 1011.7 |
| 20260506224104 | 57 | 333 | 0.0 | 0.0 | 0.00 | 0.03 | 0.00 | 40 | 1011.8 |
| 20260506223604 | 57 | 341 | 0.0 | 0.0 | 0.00 | 0.03 | 0.00 | 41 | 1011.7 |
| 20260506223104 | 58 | 289 | 0.0 | 0.0 | 0.00 | 0.03 | 0.00 | 42 | 1011.7 |
| 20260506222605 | 58 | 271 | 0.0 | 0.0 | 0.00 | 0.03 | 0.00 | 40 | 1011.7 |
| 20260506221604 | 58 | 9 | 0.0 | 0.0 | 0.00 | 0.03 | 0.00 | 40 | 1011.8 |
| 20260506221104 | 58 | 307 | 0.0 | 0.0 | 0.00 | 0.03 | 0.00 | 41 | 1011.8 |
| 20260506220605 | 58 | 253 | 0.0 | 0.0 | 0.00 | 0.03 | 0.00 | 41 | 1011.9 |
| 20260506220105 | 57 | 247 | 0.0 | 0.0 | 0.00 | 0.03 | 0.00 | 41 | 1011.9 |
| 20260506215104 | 57 | 309 | 0.0 | 0.0 | 0.00 | 0.03 | 0.00 | 41 | 1011.9 |
| 20260506214604 | 57 | 241 | 0.0 | 0.0 | 0.00 | 0.03 | 0.00 | 42 | 1012.0 |
| 20260506213604 | 57 | 284 | 0.0 | 0.0 | 0.00 | 0.03 | 0.00 | 42 | 1011.7 |
| 20260506213105 | 57 | 345 | 0.0 | 0.0 | 0.00 | 0.03 | 0.00 | 42 | 1011.8 |
| 20260506212605 | 57 | 312 | 0.0 | 0.0 | 0.00 | 0.03 | 0.00 | 43 | 1011.8 |
| 20260506212104 | 57 | 310 | 0.0 | 0.0 | 0.00 | 0.03 | 0.00 | 42 | 1011.7 |
| 20260506211105 | 57 | 302 | 0.0 | 0.0 | 0.00 | 0.03 | 0.00 | 41 | 1011.9 |
| 20260506210604 | 57 | 254 | 0.0 | 0.0 | 0.00 | 0.03 | 0.00 | 40 | 1011.7 |
| 20260506210104 | 57 | 344 | 0.0 | 0.0 | 0.00 | 0.03 | 0.00 | 41 | 1011.6 |
| 20260506205104 | 57 | 350 | 0.0 | 0.0 | 0.00 | 0.03 | 0.00 | 44 | 1011.6 |
| 20260506204605 | 57 | 320 | 0.0 | 0.0 | 0.00 | 0.03 | 0.00 | 43 | 1011.6 |
| 20260506203604 | 57 | 280 | 0.0 | 0.0 | 0.00 | 0.03 | 0.00 | 42 | 1011.6 |
| 20260506203104 | 57 | 232 | 0.0 | 0.0 | 0.00 | 0.03 | 0.00 | 42 | 1011.6 |
| 20260506202604 | 57 | 274 | 0.0 | 0.0 | 0.00 | 0.03 | 0.00 | 43 | 1011.6 |
| 20260506202104 | 57 | 321 | 0.0 | 0.0 | 0.00 | 0.03 | 0.00 | 43 | 1011.6 |
| 20260506201604 | 57 | 12 | 0.0 | 0.0 | 0.00 | 0.03 | 0.00 | 43 | 1011.7 |
| 20260506200104 | 57 | 258 | 0.0 | 0.0 | 0.00 | 0.03 | 0.00 | 42 | 1011.7 |
| 20260506195604 | 57 | 306 | 0.0 | 0.0 | 0.00 | 0.03 | 0.00 | 42 | 1011.7 |
| 20260506195104 | 57 | 308 | 0.0 | 0.0 | 0.00 | 0.03 | 0.00 | 44 | 1011.6 |
| 20260506194604 | 57 | 274 | 0.0 | 0.0 | 0.00 | 0.03 | 0.00 | 42 | 1011.7 |
| 20260506194104 | 57 | 264 | 0.0 | 0.0 | 0.00 | 0.03 | 0.00 | 41 | 1011.9 |
| 20260506193604 | 57 | 333 | 0.0 | 0.0 | 0.00 | 0.03 | 0.00 | 42 | 1011.9 |
| 20260506193104 | 57 | 308 | 0.0 | 0.0 | 0.00 | 0.03 | 0.00 | 43 | 1012.0 |
| 20260506192604 | 57 | 340 | 0.0 | 0.0 | 0.00 | 0.03 | 0.00 | 43 | 1012.1 |
| 20260506192104 | 57 | 257 | 0.0 | 0.0 | 0.00 | 0.03 | 0.00 | 43 | 1012.1 |
| 20260506191604 | 58 | 28 | 0.0 | 0.0 | 0.00 | 0.03 | 0.00 | 42 | 1012.0 |
| 20260506191103 | 57 | 305 | 0.0 | 0.0 | 0.00 | 0.03 | 0.00 | 43 | 1012.1 |
| 20260506190604 | 57 | 271 | 0.0 | 0.0 | 0.00 | 0.03 | 0.00 | 45 | 1011.9 |
| 20260506190104 | 57 | 293 | 0.0 | 0.0 | 0.00 | 0.03 | 0.00 | 45 | 1011.9 |
| 20260506185604 | 56 | 301 | 0.0 | 0.0 | 0.00 | 0.03 | 0.00 | 45 | 1011.9 |
| 20260506185104 | 56 | 329 | 0.0 | 0.0 | 0.00 | 0.03 | 0.00 | 44 | 1011.9 |
| 20260506184604 | 56 | 301 | 0.0 | 0.0 | 0.00 | 0.03 | 0.00 | 45 | 1011.8 |
| 20260506183604 | 56 | 25 | 0.0 | 0.0 | 0.00 | 0.03 | 0.00 | 45 | 1011.7 |
| 20260506183104 | 56 | 346 | 0.0 | 0.0 | 0.00 | 0.03 | 0.00 | 45 | 1011.8 |
| 20260506182604 | 56 | 292 | 0.0 | 0.0 | 0.00 | 0.03 | 0.00 | 46 | 1011.8 |
| 20260506182104 | 55 | 318 | 0.0 | 0.0 | 0.00 | 0.03 | 0.00 | 46 | 1011.7 |
| 20260506181605 | 55 | 240 | 0.0 | 0.0 | 0.00 | 0.03 | 0.00 | 49 | 1011.9 |
| 20260506181104 | 55 | 318 | 0.0 | 0.0 | 0.00 | 0.03 | 0.00 | 46 | 1011.9 |
| 20260506180604 | 55 | 341 | 0.0 | 0.0 | 0.00 | 0.03 | 0.00 | 47 | 1011.9 |
| 20260506180104 | 55 | 0 | 0.0 | 0.0 | 0.00 | 0.03 | 0.00 | 47 | 1011.9 |
| 20260506175604 | 55 | 289 | 0.0 | 0.0 | 0.00 | 0.03 | 0.00 | 47 | 1012.0 |
| 20260506175104 | 55 | 307 | 0.0 | 0.0 | 0.00 | 0.03 | 0.00 | 46 | 1012.1 |
| 20260506174604 | 55 | 294 | 0.0 | 0.0 | 0.00 | 0.03 | 0.00 | 46 | 1012.1 |
| 20260506174104 | 55 | 270 | 0.0 | 0.0 | 0.00 | 0.03 | 0.00 | 46 | 1012.1 |
| 20260506173604 | 55 | 265 | 0.0 | 0.0 | 0.00 | 0.03 | 0.00 | 47 | 1012.1 |
| 20260506172604 | 55 | 299 | 0.0 | 0.0 | 0.00 | 0.03 | 0.00 | 45 | 1012.1 |
| 20260506171604 | 56 | 246 | 0.0 | 0.0 | 0.00 | 0.03 | 0.00 | 44 | 1012.1 |
| 20260506171104 | 56 | 266 | 0.0 | 0.0 | 0.00 | 0.03 | 0.00 | 42 | 1011.9 |
| 20260506170604 | 56 | 315 | 0.0 | 0.0 | 0.00 | 0.03 | 0.00 | 45 | 1011.8 |
| 20260506170105 | 56 | 326 | 0.0 | 0.0 | 0.00 | 0.03 | 0.00 | 45 | 1011.8 |
| 20260506165604 | 56 | 281 | 0.0 | 0.0 | 0.00 | 0.03 | 0.00 | 46 | 1011.8 |
| 20260506165104 | 56 | 301 | 0.0 | 0.0 | 0.00 | 0.03 | 0.00 | 46 | 1011.7 |
| 20260506164604 | 56 | 317 | 0.0 | 0.0 | 0.00 | 0.03 | 0.00 | 46 | 1011.8 |
| 20260506164104 | 56 | 318 | 0.0 | 0.0 | 0.00 | 0.03 | 0.00 | 45 | 1011.7 |
| 20260506163604 | 56 | 267 | 0.0 | 0.0 | 0.00 | 0.03 | 0.00 | 47 | 1011.6 |
| 20260506163104 | 57 | 1 | 0.0 | 0.0 | 0.00 | 0.03 | 0.00 | 47 | 1011.6 |
| 20260506162604 | 57 | 27 | 0.0 | 0.0 | 0.00 | 0.03 | 0.00 | 47 | 1011.7 |
| 20260506161604 | 57 | 344 | 0.0 | 0.0 | 0.00 | 0.03 | 0.00 | 47 | 1011.6 |
| 20260506161104 | 57 | 321 | 0.0 | 0.0 | 0.00 | 0.03 | 0.00 | 48 | 1011.6 |
| 20260506160604 | 57 | 333 | 0.0 | 0.0 | 0.00 | 0.03 | 0.00 | 48 | 1011.5 |
| 20260506160104 | 57 | 296 | 0.0 | 0.0 | 0.00 | 0.03 | 0.00 | 45 | 1011.4 |
| 20260506155604 | 57 | 291 | 0.0 | 0.0 | 0.00 | 0.03 | 0.00 | 43 | 1011.5 |
| 20260506155104 | 57 | 311 | 0.0 | 0.0 | 0.00 | 0.03 | 0.00 | 45 | 1011.4 |
| 20260506154604 | 57 | 297 | 0.0 | 0.0 | 0.00 | 0.03 | 0.00 | 44 | 1011.3 |
| 20260506153604 | 57 | 227 | 0.0 | 0.0 | 0.00 | 0.03 | 0.00 | 44 | 1011.4 |
| 20260506153104 | 57 | 254 | 0.0 | 0.0 | 0.00 | 0.03 | 0.00 | 45 | 1011.3 |
| 20260506152604 | 57 | 285 | 0.0 | 0.0 | 0.00 | 0.03 | 0.00 | 44 | 1011.3 |
| 20260506152104 | 57 | 301 | 0.0 | 0.0 | 0.00 | 0.03 | 0.00 | 43 | 1011.1 |
| 20260506151604 | 57 | 305 | 0.0 | 0.0 | 0.00 | 0.03 | 0.00 | 45 | 1011.1 |
| 20260506151104 | 57 | 268 | 0.0 | 0.0 | 0.00 | 0.03 | 0.00 | 46 | 1011.0 |
| 20260506150604 | 56 | 322 | 0.0 | 0.0 | 0.00 | 0.03 | 0.00 | 47 | 1011.1 |
| 20260506150104 | 56 | 327 | 0.0 | 0.0 | 0.00 | 0.03 | 0.00 | 47 | 1011.0 |
| 20260506144604 | 56 | 318 | 0.0 | 0.0 | 0.00 | 0.03 | 0.00 | 50 | 1011.0 |
| 20260506143604 | 56 | 346 | 0.0 | 0.0 | 0.00 | 0.03 | 0.00 | 52 | 1011.0 |
| 20260506143104 | 56 | 246 | 0.0 | 0.0 | 0.00 | 0.03 | 0.00 | 53 | 1010.9 |
| 20260506141604 | 55 | 268 | 0.0 | 0.0 | 0.00 | 0.03 | 0.00 | 56 | 1011.0 |
| 20260506141104 | 55 | 347 | 0.0 | 0.0 | 0.00 | 0.03 | 0.00 | 56 | 1010.9 |
| 20260506140104 | 55 | 307 | 0.0 | 0.0 | 0.00 | 0.03 | 0.00 | 59 | 1010.6 |
| 20260506135604 | 55 | 317 | 0.0 | 0.0 | 0.00 | 0.03 | 0.00 | 59 | 1010.6 |
| 20260506135104 | 55 | 318 | 0.0 | 0.0 | 0.00 | 0.03 | 0.00 | 59 | 1010.7 |
| 20260506134604 | 55 | 351 | 0.0 | 0.0 | 0.00 | 0.03 | 0.00 | 61 | 1010.6 |
| 20260506134103 | 55 | 271 | 0.0 | 0.0 | 0.00 | 0.03 | 0.00 | 62 | 1010.6 |
| 20260506133604 | 54 | 275 | 0.0 | 0.0 | 0.00 | 0.03 | 0.00 | 64 | 1010.5 |
| 20260506132604 | 54 | 323 | 0.0 | 0.0 | 0.00 | 0.03 | 0.00 | 67 | 1010.4 |
| 20260506131104 | 53 | 294 | 0.0 | 0.0 | 0.00 | 0.03 | 0.00 | 71 | 1010.3 |
| 20260506130605 | 52 | 294 | 0.0 | 0.0 | 0.00 | 0.03 | 0.00 | 72 | 1010.0 |
| 20260506130104 | 52 | 311 | 0.0 | 0.0 | 0.00 | 0.03 | 0.00 | 74 | 1009.9 |
| 20260506125604 | 51 | 309 | 0.0 | 0.0 | 0.00 | 0.03 | 0.00 | 75 | 1010.0 |
| 20260506125104 | 50 | 308 | 0.0 | 0.0 | 0.00 | 0.03 | 0.00 | 76 | 1010.1 |
| 20260506124104 | 49 | 301 | 0.0 | 0.0 | 0.00 | 0.03 | 0.00 | 77 | 1009.9 |
| 20260506123603 | 49 | 267 | 0.0 | 0.0 | 0.00 | 0.03 | 0.00 | 78 | 1009.9 |
| 20260506123104 | 48 | 283 | 0.0 | 0.0 | 0.00 | 0.03 | 0.00 | 79 | 1009.8 |
| 20260506122604 | 48 | 291 | 0.0 | 0.0 | 0.00 | 0.03 | 0.00 | 79 | 1009.8 |
| 20260506122104 | 48 | 255 | 0.0 | 0.0 | 0.00 | 0.03 | 0.00 | 80 | 1009.6 |
| 20260506121604 | 47 | 258 | 0.0 | 0.0 | 0.00 | 0.03 | 0.00 | 80 | 1009.6 |
| 20260506121104 | 47 | 257 | 0.0 | 0.0 | 0.00 | 0.03 | 0.00 | 80 | 1009.7 |
| 20260506120104 | 47 | 255 | 0.0 | 0.0 | 0.00 | 0.03 | 0.00 | 81 | 1009.5 |
| 20260506115103 | 47 | 252 | 0.0 | 0.0 | 0.00 | 0.03 | 0.00 | 82 | 1009.4 |
| 20260506114604 | 47 | 247 | 0.0 | 0.0 | 0.00 | 0.03 | 0.00 | 83 | 1009.4 |
| 20260506114104 | 47 | 245 | 0.0 | 0.0 | 0.00 | 0.03 | 0.00 | 83 | 1009.3 |
| 20260506113103 | 47 | 251 | 0.0 | 0.0 | 0.00 | 0.03 | 0.00 | 83 | 1009.2 |
| 20260506112604 | 47 | 255 | 0.0 | 0.0 | 0.00 | 0.03 | 0.00 | 84 | 1009.1 |
| 20260506112104 | 47 | 256 | 0.0 | 0.0 | 0.00 | 0.03 | 0.00 | 84 | 1009.0 |
| 20260506110604 | 47 | 257 | 0.0 | 0.0 | 0.00 | 0.03 | 0.00 | 85 | 1008.8 |
| 20260506110104 | 47 | 257 | 0.0 | 0.0 | 0.00 | 0.03 | 0.00 | 85 | 1008.8 |
| 20260506105604 | 47 | 257 | 0.0 | 0.0 | 0.00 | 0.03 | 0.00 | 85 | 1008.8 |
| 20260506105104 | 47 | 257 | 0.0 | 0.0 | 0.00 | 0.03 | 0.00 | 85 | 1008.7 |
| 20260506104604 | 47 | 252 | 0.0 | 0.0 | 0.00 | 0.03 | 0.00 | 85 | 1008.7 |
| 20260506104104 | 47 | 252 | 0.0 | 0.0 | 0.00 | 0.03 | 0.00 | 85 | 1008.6 |
| 20260506103106 | 47 | 252 | 0.0 | 0.0 | 0.00 | 0.03 | 0.00 | 85 | 1008.3 |
| 20260506102604 | 47 | 252 | 0.0 | 0.0 | 0.00 | 0.03 | 0.00 | 85 | 1008.2 |
| 20260506102104 | 47 | 252 | 0.0 | 0.0 | 0.00 | 0.03 | 0.00 | 85 | 1008.2 |
| 20260506101104 | 47 | 252 | 0.0 | 0.0 | 0.00 | 0.03 | 0.00 | 85 | 1007.9 |
| 20260506100604 | 47 | 252 | 0.0 | 0.0 | 0.00 | 0.03 | 0.00 | 85 | 1007.8 |
| 20260506100103 | 47 | 252 | 0.0 | 0.0 | 0.00 | 0.03 | 0.00 | 85 | 1007.9 |
| 20260506095104 | 47 | 252 | 0.0 | 0.0 | 0.00 | 0.03 | 0.00 | 85 | 1008.2 |
| 20260506094104 | 47 | 252 | 0.0 | 0.0 | 0.00 | 0.03 | 0.00 | 85 | 1008.0 |
| 20260506093604 | 47 | 252 | 0.0 | 0.0 | 0.00 | 0.03 | 0.00 | 85 | 1007.8 |
| 20260506092603 | 47 | 252 | 0.0 | 0.0 | 0.00 | 0.03 | 0.00 | 85 | 1008.0 |
| 20260506092104 | 47 | 252 | 0.0 | 0.0 | 0.00 | 0.03 | 0.00 | 86 | 1007.9 |
| 20260506091604 | 47 | 252 | 0.0 | 0.0 | 0.00 | 0.03 | 0.00 | 86 | 1007.9 |
| 20260506091104 | 47 | 252 | 0.0 | 0.0 | 0.00 | 0.03 | 0.00 | 86 | 1007.7 |
| 20260506090604 | 48 | 252 | 0.0 | 0.0 | 0.00 | 0.03 | 0.00 | 86 | 1007.7 |
| 20260506085605 | 48 | 252 | 0.0 | 0.0 | 0.00 | 0.03 | 0.00 | 86 | 1007.6 |
| 20260506085104 | 48 | 252 | 0.0 | 0.0 | 0.00 | 0.03 | 0.00 | 86 | 1007.7 |
| 20260506084604 | 48 | 252 | 0.0 | 0.0 | 0.00 | 0.03 | 0.00 | 86 | 1007.8 |
| 20260506084104 | 48 | 252 | 0.0 | 0.0 | 0.00 | 0.03 | 0.00 | 86 | 1007.8 |
| 20260506083604 | 48 | 252 | 0.0 | 0.0 | 0.00 | 0.03 | 0.00 | 86 | 1007.9 |
| 20260506083103 | 48 | 252 | 0.0 | 0.0 | 0.00 | 0.03 | 0.00 | 86 | 1007.7 |
| 20260506082604 | 48 | 252 | 0.0 | 0.0 | 0.00 | 0.03 | 0.00 | 86 | 1007.6 |
| 20260506082103 | 48 | 252 | 0.0 | 0.0 | 0.00 | 0.03 | 0.00 | 86 | 1007.5 |
| 20260506081603 | 48 | 252 | 0.0 | 0.0 | 0.00 | 0.03 | 0.00 | 86 | 1007.6 |
| 20260506080604 | 48 | 252 | 0.0 | 0.0 | 0.00 | 0.03 | 0.00 | 86 | 1007.4 |
| 20260506080104 | 48 | 252 | 0.0 | 0.0 | 0.00 | 0.03 | 0.00 | 86 | 1007.5 |
| 20260506073104 | 48 | 252 | 0.0 | 0.0 | 0.00 | 0.03 | 0.00 | 86 | 1007.7 |
| 20260506072603 | 48 | 252 | 0.0 | 0.0 | 0.00 | 0.03 | 0.00 | 86 | 1007.7 |
| 20260506072103 | 48 | 252 | 0.0 | 0.0 | 0.00 | 0.03 | 0.00 | 86 | 1007.6 |
| 20260506071603 | 48 | 252 | 0.0 | 0.0 | 0.00 | 0.03 | 0.00 | 86 | 1007.4 |
| 20260506071104 | 48 | 251 | 0.0 | 0.0 | 0.00 | 0.03 | 0.00 | 86 | 1007.6 |
| 20260506070603 | 48 | 251 | 0.0 | 0.0 | 0.00 | 0.03 | 0.00 | 86 | 1007.6 |
| 20260506070104 | 48 | 251 | 0.0 | 0.0 | 0.00 | 0.03 | 0.00 | 86 | 1007.7 |
| 20260506062104 | 48 | 251 | 0.0 | 0.0 | 0.00 | 0.03 | 0.00 | 86 | 1008.2 |
| 20260506061604 | 48 | 251 | 0.0 | 0.0 | 0.00 | 0.03 | 0.00 | 86 | 1008.1 |
| 20260506061104 | 48 | 251 | 0.0 | 0.0 | 0.00 | 0.04 | 0.00 | 86 | 1007.9 |
| 20260506060604 | 49 | 251 | 0.0 | 0.0 | 0.00 | 0.04 | 0.00 | 86 | 1008.1 |
| 20260506051105 | 49 | 239 | 0.0 | 0.0 | 0.00 | 0.05 | 0.00 | 86 | 1008.1 |
| 20260506050605 | 49 | 237 | 0.0 | 0.0 | 0.00 | 0.05 | 0.00 | 86 | 1008.1 |
| 20260506045105 | 49 | 235 | 0.0 | 0.0 | 0.00 | 0.05 | 0.00 | 85 | 1008.0 |
| 20260506044605 | 49 | 235 | 0.0 | 0.0 | 0.00 | 0.05 | 0.00 | 85 | 1008.1 |
| 20260506043605 | 49 | 252 | 0.0 | 0.0 | 0.00 | 0.06 | 0.00 | 85 | 1008.0 |
| 20260506043105 | 49 | 252 | 0.0 | 0.0 | 0.00 | 0.06 | 0.00 | 85 | 1008.0 |
| 20260506042605 | 49 | 252 | 0.0 | 0.0 | 0.00 | 0.06 | 0.00 | 84 | 1008.1 |
| 20260506042106 | 49 | 252 | 0.0 | 0.0 | 0.01 | 0.06 | 0.00 | 84 | 1008.1 |
| 20260506041606 | 49 | 252 | 0.0 | 0.0 | 0.01 | 0.06 | 0.00 | 84 | 1008.1 |
| 20260506041105 | 49 | 253 | 0.0 | 0.0 | 0.01 | 0.06 | 0.00 | 83 | 1008.0 |
| 20260506040606 | 49 | 253 | 0.0 | 0.0 | 0.01 | 0.06 | 0.00 | 83 | 1007.7 |
| 20260506040105 | 49 | 253 | 0.0 | 0.0 | 0.01 | 0.06 | 0.00 | 82 | 1007.6 |
| 20260506035605 | 49 | 253 | 0.0 | 0.0 | 0.01 | 0.06 | 0.06 | 81 | 1007.6 |
| 20260506035105 | 49 | 252 | 0.0 | 0.0 | 0.01 | 0.06 | 0.06 | 81 | 1007.6 |
| 20260506034605 | 49 | 252 | 0.0 | 0.0 | 0.01 | 0.06 | 0.06 | 81 | 1007.5 |
| 20260506034105 | 49 | 252 | 0.0 | 0.0 | 0.01 | 0.06 | 0.06 | 81 | 1007.6 |
| 20260506033606 | 49 | 252 | 0.0 | 0.0 | 0.01 | 0.06 | 0.06 | 81 | 1007.6 |
| 20260506033106 | 49 | 252 | 0.0 | 0.0 | 0.01 | 0.06 | 0.06 | 80 | 1007.6 |
| 20260506032105 | 49 | 252 | 0.0 | 0.0 | 0.01 | 0.05 | 0.05 | 80 | 1007.9 |
| 20260506031606 | 50 | 252 | 0.0 | 0.0 | 0.01 | 0.05 | 0.05 | 80 | 1008.0 |
| 20260506031105 | 50 | 252 | 0.0 | 0.0 | 0.01 | 0.05 | 0.05 | 79 | 1008.0 |
| 20260506030105 | 50 | 252 | 0.0 | 0.0 | 0.01 | 0.05 | 0.05 | 78 | 1008.0 |
| 20260506025105 | 51 | 252 | 0.0 | 0.0 | 0.02 | 0.05 | 0.05 | 77 | 1008.0 |
| 20260506024105 | 51 | 253 | 0.0 | 0.0 | 0.02 | 0.05 | 0.05 | 74 | 1008.1 |
| 20260506023605 | 51 | 253 | 0.0 | 0.0 | 0.02 | 0.05 | 0.05 | 73 | 1008.0 |
| 20260506022605 | 52 | 253 | 0.0 | 0.0 | 0.01 | 0.04 | 0.04 | 70 | 1008.0 |
| 20260506022105 | 52 | 252 | 0.0 | 0.0 | 0.01 | 0.04 | 0.04 | 70 | 1008.0 |
| 20260506021605 | 52 | 252 | 0.0 | 0.0 | 0.01 | 0.04 | 0.04 | 68 | 1008.0 |
| 20260506021106 | 52 | 252 | 0.0 | 0.0 | 0.01 | 0.04 | 0.04 | 67 | 1007.9 |
| 20260506015605 | 53 | 252 | 0.0 | 0.0 | 0.01 | 0.04 | 0.04 | 64 | 1007.6 |
| 20260506014605 | 53 | 248 | 0.0 | 0.0 | 0.00 | 0.03 | 0.03 | 63 | 1007.5 |
| 20260506014105 | 54 | 254 | 0.0 | 0.0 | 0.00 | 0.03 | 0.03 | 63 | 1007.4 |
| 20260506013606 | 54 | 254 | 0.0 | 0.0 | 0.00 | 0.03 | 0.03 | 62 | 1007.4 |
| 20260506013105 | 54 | 255 | 0.0 | 0.0 | 0.00 | 0.03 | 0.03 | 61 | 1007.4 |
| 20260506012105 | 54 | 256 | 0.0 | 0.0 | 0.00 | 0.03 | 0.03 | 60 | 1007.1 |
| 20260506011606 | 54 | 256 | 0.0 | 0.0 | 0.00 | 0.03 | 0.03 | 59 | 1007.0 |
| 20260506011106 | 54 | 256 | 0.0 | 0.0 | 0.00 | 0.03 | 0.03 | 57 | 1007.0 |
| 20260506010605 | 54 | 256 | 0.0 | 0.0 | 0.00 | 0.03 | 0.03 | 56 | 1007.0 |